weather.gov     
National Weather Service

Regional Weather Roundup
NWS Homepage
This page is being discontinued on March 12, 2014.
The same data is available at this site. Please update your bookmarks.
Thank you, and we apologize for the inconvenience.
Please send an email to SR-SRH.Webmaster@noaa.gov with any concerns.


Current Version
Previous Version:    01  02  03  04  05  06  07  08  09  10  11  12  13  14  15  16  17  18  19  20  21  22  23  24  25  26  
[Printable]
279
ASUS44 KLZK 012005
RWRLZK

WEATHER ROUNDUP FOR ARKANSAS
NATIONAL WEATHER SERVICE LITTLE ROCK AR
300 PM CDT MON SEP 01 2014

NOTE: "FAIR" INDICATES FEW OR NO CLOUDS BELOW 12,000 FEET WITH NO
SIGNIFICANT WEATHER AND/OR OBSTRUCTIONS TO VISIBILITY.

ARZ001-003-010-029-012100-
NORTHWEST ARKANSAS

CITY           SKY/WX    TMP DP  RH WIND       PRES   REMARKS
FAYETTEVILLE   PTSUNNY   85  70  60 S17G26    29.92F HX  89
FORT SMITH     MOSUNNY   92  70  48 S12       29.89F HX  97
HARRISON       MOSUNNY   85  71  63 S14G23    29.96F HX  90
BENTONVILLE    SUNNY     88  70  55 S10G21    29.93F HX  92
ROGERS         MOSUNNY   87  70  56 S18G25    29.93F HX  92
HIGHFILL       MOSUNNY   87  70  56 S23G29    29.91F HX  92
SPRINGDALE     MOSUNNY   86  72  62 S16       29.94F HX  92
$$

ARZ004-005-016-012100-
NORTH CENTRAL ARKANSAS

CITY           SKY/WX    TMP DP  RH WIND       PRES   REMARKS
BATESVILLE     PTSUNNY   91  70  49 S8        29.95F HX  97
FLIPPIN        MOSUNNY   86  66  51 SE7       29.94F HX  88
MTN HOME       MOSUNNY   87  68  52 S12       29.94F HX  90
$$

ARZ040-041-012100-
WEST CENTRAL ARKANSAS

CITY           SKY/WX    TMP DP  RH WIND       PRES   REMARKS
MENA           PTSUNNY   90  72  55 CALM      29.97F HX  96
MOUNT IDA      MOSUNNY   88  71  57 S10       29.95F HX  94
$$

ARZ009-017-025-026-028-012100-
NORTHEAST ARKANSAS

CITY           SKY/WX    TMP DP  RH WIND       PRES   REMARKS
CORNING        LGT RAIN  90  73  58 S17G23    29.93F HX  98
JONESBORO      MOSUNNY   90  71  53 S18G24    29.95F HX  96
NEWPORT        MOSUNNY   91  72  53 S15       29.96F HX  98
WALNUT RIDGE   PTSUNNY   88  57  35 S23G29    29.91F HX  86
BLYTHEVILLE    MOSUNNY   89  74  60 S15G21    29.97F HX  98
$$

ARZ022-023-033-042-044-012100-
CENTRAL ARKANSAS

CITY           SKY/WX    TMP DP  RH WIND       PRES   REMARKS
LITTLE ROCK    PTSUNNY   90  71  53 S13G18    29.96F HX  96
N LITTLE ROCK  PTSUNNY   90  73  56 S13G22    29.96F HX  98
JACKSONVILLE   MOSUNNY   91  72  54 S8        29.96F HX  98
SEARCY         SUNNY     91  72  53 W15       29.97F HX  98
HOT SPRINGS    PTSUNNY   88  70  55 S9        29.97F HX  93
RUSSELLVILLE   MOSUNNY   91  70  49 VRB7      29.93F HX  96
CLINTON        FAIR      90  73  58 S7        29.95F HAZE    HX  98
$$

ARZ036-012100-
EAST ARKANSAS

CITY           SKY/WX    TMP DP  RH WIND       PRES   REMARKS
WEST MEMPHIS   SUNNY     89  74  60 S15       29.98F HX  98
$$

ARZ050-053-066-070-073-012100-
SOUTHWEST ARKANSAS

CITY           SKY/WX    TMP DP  RH WIND       PRES   REMARKS
ARKADELPHIA    FAIR      91  74  57 S9        29.96F HX 100
CAMDEN         SUNNY     93  72  49 S9        29.96F HX 100
TEXARKANA      MOSUNNY   95  69  42 S10G16    29.94F HX 100
EL DORADO      SUNNY     88  75  65 E12       29.98F HX  97
DE QUEEN       PTSUNNY   89  72  56 SE9       29.92F HX  96
$$

ARZ056-057-069-012100-
SOUTHEAST ARKANSAS

CITY           SKY/WX    TMP DP  RH WIND       PRES   REMARKS
PINE BLUFF     PTSUNNY   89  74  60 S8        29.98F HX  98
STUTTGART      MOSUNNY   90  73  58 S9        30.00F HX  98
MONTICELLO     MOSUNNY   89  73  59 VRB7      29.99F HX  97

$$






U.S. Dept. of Commerce
NOAA National Weather Service
1325 East West Highway
Silver Spring, MD 20910
E-mail: w-nws.webmaster@noaa.gov
Page last modified: May 16, 2007
NATIONAL WEATHER SERVICE: for Safety, for Work, for Fun - FOR LIFE